SBI1027 VHHH-VVDN

Flight info

Callsign SBI1027
Flight time 1h 27m
Altitude 34000
Route PECAN V11 IDOSI P901 IKELA/K0863F340 A1 KANGU
Aircraft A21N/M-SDE2E3FGHIRWXY/LB1

Departure

Time 2026-04-20 05:12
Airport Hong Kong International Airport (VHHH)

Arrival

Time 2026-04-20 06:39
Airport Da Nang International Airport (VVDN)
Time Latitude Longitude Altitude Speed Heading
2026-04-20 04:54 22.31159 113.92746 29 ft 0 kts 295°
2026-04-20 05:03 22.31158 113.92748 29 ft 2 kts 295°
2026-04-20 05:03 22.31151 113.92763 29 ft 2 kts 295°
2026-04-20 05:04 22.31145 113.92777 29 ft 2 kts 295°
2026-04-20 05:04 22.31139 113.92792 29 ft 2 kts 295°
2026-04-20 05:04 22.31131 113.92806 29 ft 2 kts 320°
2026-04-20 05:04 22.31118 113.92814 29 ft 2 kts 346°
2026-04-20 05:05 22.31103 113.92815 29 ft 2 kts 13°
2026-04-20 05:05 22.31095 113.92812 29 ft 1 kts 28°
2026-04-20 05:05 22.31091 113.92809 29 ft 0 kts 27°
2026-04-20 05:07 22.31092 113.92810 29 ft 0 kts 27°
2026-04-20 05:07 22.31099 113.92814 29 ft 1 kts 27°
2026-04-20 05:07 22.31113 113.92821 29 ft 2 kts 26°
2026-04-20 05:07 22.31133 113.92831 29 ft 3 kts 26°
2026-04-20 05:08 22.31158 113.92847 29 ft 4 kts 39°
2026-04-20 05:08 22.31178 113.92879 29 ft 5 kts 66°
2026-04-20 05:08 22.31193 113.92921 29 ft 6 kts 70°
2026-04-20 05:08 22.31208 113.92969 29 ft 7 kts 73°
2026-04-20 05:09 22.31201 113.93023 29 ft 8 kts 131°
2026-04-20 05:09 22.31148 113.93051 29 ft 9 kts 160°
2026-04-20 05:09 22.31085 113.93074 29 ft 9 kts 161°
2026-04-20 05:09 22.31018 113.93099 29 ft 10 kts 161°
2026-04-20 05:10 22.30946 113.93130 29 ft 11 kts 148°
2026-04-20 05:10 22.30871 113.93173 29 ft 12 kts 160°
2026-04-20 05:10 22.30788 113.93201 29 ft 10 kts 163°
2026-04-20 05:10 22.30720 113.93195 29 ft 9 kts 229°
2026-04-20 05:11 22.30692 113.93126 29 ft 10 kts 251°
2026-04-20 05:11 22.30669 113.93050 29 ft 13 kts 251°
2026-04-20 05:11 22.30552 113.92705 29 ft 86 kts 248°
2026-04-20 05:11 22.30271 113.91866 29 ft 150 kts 250°
2026-04-20 05:12 22.29883 113.90668 352 ft 174 kts 248°
2026-04-20 05:12 22.29504 113.89459 1093 ft 173 kts 248°
2026-04-20 05:12 22.29129 113.88252 1811 ft 171 kts 248°
2026-04-20 05:12 22.28705 113.87071 2169 ft 174 kts 243°
2026-04-20 05:13 22.28123 113.85874 2364 ft 183 kts 236°
2026-04-20 05:13 22.27409 113.84693 2577 ft 195 kts 233°
2026-04-20 05:13 22.26618 113.83442 2828 ft 207 kts 233°
2026-04-20 05:13 22.25743 113.82163 3079 ft 219 kts 223°
2026-04-20 05:14 22.24380 113.81332 3316 ft 230 kts 189°
2026-04-20 05:14 22.22765 113.81197 3698 ft 240 kts 180°
2026-04-20 05:14 22.21084 113.81180 4230 ft 245 kts 177°
2026-04-20 05:14 22.19434 113.81645 4761 ft 250 kts 148°
2026-04-20 05:15 22.18146 113.82910 5411 ft 252 kts 133°
2026-04-20 05:15 22.17006 113.84328 6029 ft 255 kts 129°
2026-04-20 05:15 22.16013 113.85956 6635 ft 260 kts 118°
2026-04-20 05:15 22.15269 113.87751 7267 ft 263 kts 114°
2026-04-20 05:16 22.14572 113.89629 7899 ft 266 kts 114°
2026-04-20 05:16 22.13953 113.91512 8501 ft 270 kts 107°
2026-04-20 05:16 22.13577 113.93529 9015 ft 278 kts 99°
2026-04-20 05:16 22.13363 113.95668 9325 ft 292 kts 97°
2026-04-20 05:17 22.13183 113.97840 9844 ft 298 kts 96°
2026-04-20 05:17 22.12992 114.00135 10393 ft 303 kts 96°
2026-04-20 05:17 22.12789 114.02470 10660 ft 318 kts 97°
2026-04-20 05:17 22.12571 114.04893 10923 ft 332 kts 97°
2026-04-20 05:18 22.12239 114.07407 11182 ft 346 kts 101°
2026-04-20 05:18 22.11801 114.10017 11438 ft 360 kts 102°
2026-04-20 05:18 22.11329 114.12733 11688 ft 374 kts 102°
2026-04-20 05:18 22.10826 114.15552 11907 ft 387 kts 104°
2026-04-20 05:19 22.09775 114.18254 11903 ft 385 kts 126°
2026-04-20 05:19 22.07930 114.20307 11885 ft 381 kts 147°
2026-04-20 05:19 22.05516 114.21515 12046 ft 383 kts 168°
2026-04-20 05:19 22.02880 114.21767 12653 ft 381 kts 182°
2026-04-20 05:20 22.00238 114.21680 13337 ft 381 kts 184°
2026-04-20 05:20 21.97578 114.21576 13780 ft 385 kts 183°
2026-04-20 05:20 21.94879 114.21489 13939 ft 386 kts 183°
2026-04-20 05:20 21.92171 114.21418 13946 ft 385 kts 183°
2026-04-20 05:21 21.89506 114.21273 13944 ft 384 kts 188°
2026-04-20 05:21 21.86869 114.20696 13948 ft 383 kts 198°
2026-04-20 05:21 21.84394 114.19665 14141 ft 387 kts 206°
2026-04-20 05:21 21.81978 114.18378 14771 ft 387 kts 208°
2026-04-20 05:22 21.79562 114.17049 15372 ft 388 kts 208°
2026-04-20 05:22 21.77145 114.15717 15863 ft 391 kts 208°
2026-04-20 05:22 21.74706 114.14380 16353 ft 394 kts 208°
2026-04-20 05:22 21.72265 114.13047 16844 ft 397 kts 208°
2026-04-20 05:23 21.69775 114.11692 17315 ft 400 kts 208°
2026-04-20 05:23 21.67273 114.10358 17779 ft 403 kts 206°
2026-04-20 05:23 21.64684 114.09185 18233 ft 406 kts 202°
2026-04-20 05:23 21.61988 114.08222 18690 ft 409 kts 198°
2026-04-20 05:24 21.59212 114.07450 19150 ft 411 kts 195°
2026-04-20 05:24 21.56408 114.06726 19604 ft 413 kts 195°
2026-04-20 05:24 21.53600 114.06007 20051 ft 415 kts 195°
2026-04-20 05:24 21.50794 114.05286 20487 ft 416 kts 195°
2026-04-20 05:25 21.47986 114.04564 20905 ft 418 kts 195°
2026-04-20 05:25 21.45121 114.03937 21322 ft 420 kts 192°
2026-04-20 05:25 21.42219 114.03478 21729 ft 422 kts 189°
2026-04-20 05:25 21.39288 114.03194 22123 ft 425 kts 186°
2026-04-20 05:26 21.36323 114.02992 22510 ft 426 kts 186°
2026-04-20 05:26 21.33331 114.02792 22876 ft 428 kts 186°
2026-04-20 05:26 21.30390 114.02598 23230 ft 430 kts 186°
2026-04-20 05:26 21.27374 114.02397 23591 ft 431 kts 186°
2026-04-20 05:27 21.24381 114.02197 23936 ft 433 kts 186°
2026-04-20 05:27 21.21369 114.01996 24266 ft 435 kts 186°
2026-04-20 05:27 21.18337 114.01794 24577 ft 437 kts 186°
2026-04-20 05:27 21.15305 114.01591 24879 ft 439 kts 186°
2026-04-20 05:28 21.12276 114.01388 25174 ft 441 kts 186°
2026-04-20 05:28 21.09177 114.01180 25465 ft 443 kts 186°
2026-04-20 05:28 21.06123 114.00976 25744 ft 445 kts 186°
2026-04-20 05:28 21.03049 114.00771 26051 ft 447 kts 186°
2026-04-20 05:29 20.99921 114.00562 26447 ft 446 kts 186°
2026-04-20 05:29 20.96854 114.00234 26823 ft 442 kts 193°
2026-04-20 05:29 20.93888 113.99365 27166 ft 439 kts 203°
2026-04-20 05:29 20.91181 113.97984 27477 ft 436 kts 213°
2026-04-20 05:30 20.88650 113.96146 27829 ft 434 kts 217°
2026-04-20 05:30 20.86238 113.94258 28174 ft 433 kts 218°
2026-04-20 05:30 20.83802 113.92332 28505 ft 432 kts 218°
2026-04-20 05:30 20.81377 113.90413 28854 ft 431 kts 218°
2026-04-20 05:31 20.78965 113.88507 29198 ft 430 kts 218°
2026-04-20 05:31 20.76578 113.86623 29522 ft 429 kts 218°
2026-04-20 05:31 20.74164 113.84721 29836 ft 428 kts 218°
2026-04-20 05:31 20.71790 113.82851 30140 ft 427 kts 218°
2026-04-20 05:32 20.69395 113.80966 30430 ft 426 kts 219°
2026-04-20 05:32 20.67009 113.79089 30699 ft 426 kts 219°
2026-04-20 05:32 20.64646 113.77232 30977 ft 425 kts 219°
2026-04-20 05:32 20.62271 113.75366 31240 ft 424 kts 219°
2026-04-20 05:33 20.59900 113.73504 31486 ft 423 kts 219°
2026-04-20 05:33 20.57530 113.71644 31728 ft 423 kts 219°
2026-04-20 05:33 20.55151 113.69777 31984 ft 422 kts 219°
2026-04-20 05:33 20.52798 113.67932 32207 ft 422 kts 219°
2026-04-20 05:34 20.50448 113.66089 32391 ft 422 kts 219°
2026-04-20 05:34 20.48071 113.64226 32574 ft 423 kts 219°
2026-04-20 05:34 20.43344 113.60523 32919 ft 424 kts 219°
2026-04-20 05:35 20.40947 113.58646 33083 ft 425 kts 219°
2026-04-20 05:35 20.38565 113.56782 33241 ft 426 kts 219°
2026-04-20 05:35 20.36201 113.54932 33401 ft 426 kts 219°
2026-04-20 05:35 20.33798 113.53055 33578 ft 426 kts 219°
2026-04-20 05:36 20.31418 113.51195 33745 ft 427 kts 219°
2026-04-20 05:36 20.29007 113.49310 33891 ft 427 kts 219°
2026-04-20 05:36 20.24237 113.45585 33931 ft 428 kts 219°
2026-04-20 05:37 20.19362 113.41781 33934 ft 428 kts 219°
2026-04-20 05:37 20.14578 113.38052 33934 ft 428 kts 219°
2026-04-20 05:38 20.09723 113.34269 33936 ft 428 kts 219°
2026-04-20 05:38 20.04957 113.30532 33934 ft 429 kts 219°
2026-04-20 05:39 20.00130 113.26763 33934 ft 430 kts 219°
2026-04-20 05:39 19.95289 113.22994 33934 ft 430 kts 219°
2026-04-20 05:40 19.90460 113.19243 33934 ft 431 kts 219°
2026-04-20 05:40 19.85603 113.15492 33934 ft 431 kts 218°
2026-04-20 05:41 19.80743 113.11742 33933 ft 431 kts 218°
2026-04-20 05:41 19.75882 113.07981 33934 ft 432 kts 219°
2026-04-20 05:42 19.71007 113.04210 33934 ft 432 kts 219°
2026-04-20 05:42 19.66122 113.00433 33934 ft 433 kts 219°
2026-04-20 05:43 19.61272 112.96684 33931 ft 433 kts 219°
2026-04-20 05:43 19.56407 112.92927 33927 ft 433 kts 219°
2026-04-20 05:44 19.51526 112.89160 33923 ft 434 kts 219°
2026-04-20 05:44 19.46602 112.85362 33918 ft 434 kts 218°
2026-04-20 05:45 19.41700 112.81582 33915 ft 434 kts 218°
2026-04-20 05:45 19.36822 112.77824 33910 ft 435 kts 219°
2026-04-20 05:46 19.31903 112.74040 33908 ft 435 kts 219°
2026-04-20 05:46 19.26972 112.70304 33908 ft 435 kts 218°
2026-04-20 05:47 19.21995 112.66563 33907 ft 436 kts 218°
2026-04-20 05:47 19.17054 112.62846 33907 ft 436 kts 218°
2026-04-20 05:48 19.12082 112.59105 33908 ft 436 kts 218°
2026-04-20 05:48 19.07169 112.55409 33908 ft 436 kts 218°
2026-04-20 05:49 19.02231 112.51696 33908 ft 436 kts 218°
2026-04-20 05:49 18.97267 112.47961 33908 ft 437 kts 218°
2026-04-20 05:50 18.92336 112.44238 33908 ft 437 kts 218°
2026-04-20 05:50 18.87387 112.40511 33907 ft 438 kts 218°
2026-04-20 05:51 18.82421 112.36783 33907 ft 438 kts 218°
2026-04-20 05:51 18.77518 112.33079 33907 ft 438 kts 218°
2026-04-20 05:52 18.72588 112.29284 33908 ft 438 kts 220°
2026-04-20 05:52 18.68015 112.25100 33908 ft 436 kts 226°
2026-04-20 05:53 18.63907 112.20416 33907 ft 435 kts 232°
2026-04-20 05:53 18.60302 112.15276 33907 ft 435 kts 238°
2026-04-20 05:54 18.56945 112.09968 33900 ft 435 kts 238°
2026-04-20 05:54 18.53598 112.04668 33888 ft 435 kts 238°
2026-04-20 05:55 18.50253 111.99383 33882 ft 435 kts 238°
2026-04-20 05:55 18.46903 111.94093 33880 ft 436 kts 238°
2026-04-20 05:56 18.43538 111.88787 33879 ft 436 kts 238°
2026-04-20 05:56 18.40167 111.83475 33879 ft 436 kts 238°
2026-04-20 05:57 18.36800 111.78173 33879 ft 437 kts 238°
2026-04-20 05:57 18.33422 111.72860 33879 ft 437 kts 238°
2026-04-20 05:58 18.30039 111.67543 33879 ft 437 kts 238°
2026-04-20 05:58 18.26681 111.62272 33879 ft 436 kts 238°
2026-04-20 05:59 18.23321 111.56998 33879 ft 436 kts 238°
2026-04-20 05:59 18.19920 111.51666 33879 ft 436 kts 238°
2026-04-20 06:00 18.16547 111.46382 33879 ft 436 kts 238°
2026-04-20 06:00 18.13156 111.41074 33879 ft 436 kts 238°
2026-04-20 06:01 18.09796 111.35821 33879 ft 436 kts 238°
2026-04-20 06:01 18.06331 111.30385 33879 ft 437 kts 238°
2026-04-20 06:02 18.02866 111.24954 33882 ft 437 kts 238°
2026-04-20 06:02 17.99480 111.19664 33885 ft 437 kts 238°
2026-04-20 06:03 17.96104 111.14398 33891 ft 438 kts 238°
2026-04-20 06:03 17.92707 111.09106 33897 ft 438 kts 238°
2026-04-20 06:04 17.89284 111.03781 33902 ft 438 kts 238°
2026-04-20 06:04 17.85857 110.98497 33905 ft 439 kts 238°
2026-04-20 06:05 17.82448 110.93227 33906 ft 439 kts 238°
2026-04-20 06:05 17.79038 110.87941 33906 ft 439 kts 238°
2026-04-20 06:06 17.75595 110.82602 33906 ft 439 kts 238°
2026-04-20 06:06 17.72181 110.77309 33906 ft 439 kts 238°
2026-04-20 06:07 17.68782 110.72045 33906 ft 439 kts 238°
2026-04-20 06:07 17.65354 110.66739 33906 ft 439 kts 238°
2026-04-20 06:08 17.61934 110.61449 33906 ft 440 kts 238°
2026-04-20 06:08 17.58470 110.56095 33906 ft 440 kts 238°
2026-04-20 06:09 17.55013 110.50755 33906 ft 440 kts 238°
2026-04-20 06:09 17.51599 110.45484 33906 ft 440 kts 238°
2026-04-20 06:10 17.48137 110.40144 33906 ft 440 kts 238°
2026-04-20 06:10 17.44674 110.34803 33906 ft 440 kts 238°
2026-04-20 06:11 17.41094 110.29266 33905 ft 440 kts 238°
2026-04-20 06:11 17.37717 110.23989 33903 ft 440 kts 238°
2026-04-20 06:12 17.34291 110.18629 33898 ft 440 kts 238°
2026-04-20 06:12 17.30879 110.13299 33892 ft 440 kts 238°
2026-04-20 06:13 17.27469 110.07979 33887 ft 440 kts 238°
2026-04-20 06:13 17.24055 110.02659 33882 ft 440 kts 238°
2026-04-20 06:14 17.20615 109.97303 33880 ft 441 kts 238°
2026-04-20 06:14 17.17193 109.91979 33879 ft 441 kts 238°
2026-04-20 06:15 17.13766 109.86650 33879 ft 442 kts 238°
2026-04-20 06:15 17.10338 109.81324 33879 ft 442 kts 238°
2026-04-20 06:16 17.06876 109.75949 33879 ft 442 kts 238°
2026-04-20 06:16 17.03464 109.70656 33879 ft 442 kts 238°
2026-04-20 06:17 17.00032 109.65337 33879 ft 442 kts 238°
2026-04-20 06:17 16.96580 109.59991 33877 ft 441 kts 238°
2026-04-20 06:18 16.94859 109.57327 33606 ft 441 kts 238°
2026-04-20 06:18 16.93116 109.54627 32780 ft 447 kts 238°
2026-04-20 06:18 16.91378 109.51935 31788 ft 453 kts 238°
2026-04-20 06:18 16.89586 109.49164 30864 ft 456 kts 238°
2026-04-20 06:19 16.87797 109.46420 30046 ft 456 kts 238°
2026-04-20 06:19 16.86039 109.43725 29382 ft 453 kts 238°
2026-04-20 06:19 16.84269 109.41002 28637 ft 453 kts 238°
2026-04-20 06:19 16.82504 109.38282 27848 ft 453 kts 238°
2026-04-20 06:20 16.80727 109.35544 27042 ft 454 kts 237°
2026-04-20 06:20 16.78948 109.32795 26218 ft 455 kts 237°
2026-04-20 06:20 16.77155 109.30013 25373 ft 456 kts 237°
2026-04-20 06:20 16.75382 109.27264 24776 ft 450 kts 237°
2026-04-20 06:21 16.73631 109.24554 24238 ft 445 kts 237°
2026-04-20 06:21 16.71908 109.21893 23701 ft 440 kts 237°
2026-04-20 06:21 16.70194 109.19247 23168 ft 435 kts 237°
2026-04-20 06:21 16.68519 109.16665 22641 ft 430 kts 237°
2026-04-20 06:22 16.66857 109.14101 22114 ft 427 kts 237°
2026-04-20 06:22 16.65188 109.11528 21582 ft 423 kts 237°
2026-04-20 06:22 16.63552 109.09006 21058 ft 419 kts 237°
2026-04-20 06:22 16.61914 109.06483 20530 ft 416 kts 237°
2026-04-20 06:23 16.60284 109.03971 20010 ft 413 kts 237°
2026-04-20 06:23 16.58678 109.01496 19483 ft 410 kts 237°
2026-04-20 06:23 16.57077 108.99034 18963 ft 407 kts 237°
2026-04-20 06:23 16.55516 108.96639 18462 ft 404 kts 236°
2026-04-20 06:24 16.53925 108.94242 17961 ft 401 kts 236°
2026-04-20 06:24 16.52353 108.91888 17470 ft 398 kts 236°
2026-04-20 06:24 16.50780 108.89531 16981 ft 395 kts 236°
2026-04-20 06:24 16.49217 108.87188 16490 ft 392 kts 236°
2026-04-20 06:25 16.47678 108.84879 16011 ft 389 kts 236°
2026-04-20 06:25 16.46123 108.82546 15513 ft 387 kts 236°
2026-04-20 06:25 16.44582 108.80235 14987 ft 385 kts 235°
2026-04-20 06:25 16.43062 108.77955 14496 ft 383 kts 235°
2026-04-20 06:26 16.41557 108.75697 14010 ft 380 kts 235°
2026-04-20 06:26 16.40060 108.73454 13534 ft 377 kts 235°
2026-04-20 06:26 16.38561 108.71207 13070 ft 374 kts 235°
2026-04-20 06:26 16.37098 108.69016 12875 ft 361 kts 235°
2026-04-20 06:27 16.35702 108.66926 12867 ft 343 kts 235°
2026-04-20 06:27 16.34378 108.64909 12614 ft 335 kts 236°
2026-04-20 06:27 16.33091 108.62904 12318 ft 328 kts 236°
2026-04-20 06:27 16.31845 108.60949 12047 ft 321 kts 236°
2026-04-20 06:28 16.30633 108.59051 11773 ft 315 kts 236°
2026-04-20 06:28 16.29421 108.57156 11472 ft 309 kts 236°
2026-04-20 06:28 16.28234 108.55306 11171 ft 304 kts 236°
2026-04-20 06:28 16.27063 108.53481 10841 ft 300 kts 236°
2026-04-20 06:29 16.25921 108.51700 10571 ft 294 kts 236°
2026-04-20 06:29 16.24800 108.49953 10317 ft 289 kts 236°
2026-04-20 06:29 16.23698 108.48236 10073 ft 283 kts 236°
2026-04-20 06:29 16.22602 108.46529 9826 ft 278 kts 236°
2026-04-20 06:30 16.21539 108.44875 9589 ft 272 kts 236°
2026-04-20 06:30 16.20500 108.43256 9353 ft 266 kts 236°
2026-04-20 06:30 16.19480 108.41670 9119 ft 260 kts 236°
2026-04-20 06:30 16.18492 108.40099 8835 ft 258 kts 242°
2026-04-20 06:31 16.17994 108.38303 8311 ft 264 kts 270°
2026-04-20 06:31 16.18371 108.36456 7840 ft 268 kts 295°
2026-04-20 06:31 16.19459 108.34874 7458 ft 268 kts 314°
2026-04-20 06:31 16.20790 108.33533 7059 ft 270 kts 314°
2026-04-20 06:32 16.22072 108.32079 6642 ft 271 kts 308°
2026-04-20 06:32 16.23170 108.30515 6237 ft 271 kts 301°
2026-04-20 06:32 16.24096 108.28829 5828 ft 263 kts 295°
2026-04-20 06:32 16.24817 108.27135 5447 ft 253 kts 289°
2026-04-20 06:33 16.25365 108.25429 5079 ft 243 kts 284°
2026-04-20 06:33 16.25746 108.23758 4794 ft 234 kts 279°
2026-04-20 06:33 16.25983 108.22131 4531 ft 220 kts 275°
2026-04-20 06:33 16.26095 108.20583 4270 ft 212 kts 271°
2026-04-20 06:34 16.25998 108.19084 4010 ft 202 kts 252°
2026-04-20 06:34 16.25303 108.17880 3787 ft 190 kts 222°
2026-04-20 06:34 16.23069 108.17184 3506 ft 162 kts 174°
2026-04-20 06:35 16.21936 108.17348 3422 ft 164 kts 171°
2026-04-20 06:35 16.20806 108.17537 3306 ft 164 kts 171°
2026-04-20 06:35 16.19680 108.17718 3208 ft 163 kts 172°
2026-04-20 06:35 16.18557 108.17893 3004 ft 165 kts 172°
2026-04-20 06:36 16.17422 108.18063 2650 ft 161 kts 172°
2026-04-20 06:36 16.16318 108.18224 2380 ft 162 kts 172°
2026-04-20 06:36 16.15203 108.18385 2120 ft 161 kts 172°
2026-04-20 06:36 16.14101 108.18545 1872 ft 160 kts 171°
2026-04-20 06:37 16.13030 108.18700 1611 ft 150 kts 171°
2026-04-20 06:37 16.12003 108.18846 1406 ft 149 kts 169°
2026-04-20 06:37 16.10975 108.18993 1168 ft 148 kts 168°
2026-04-20 06:37 16.09961 108.19144 940 ft 147 kts 168°
2026-04-20 06:38 16.08947 108.19312 712 ft 146 kts 166°
2026-04-20 06:38 16.07949 108.19518 473 ft 147 kts 167°
2026-04-20 06:38 16.06948 108.19664 257 ft 145 kts 169°
2026-04-20 06:38 16.05958 108.19810 66 ft 143 kts 168°
2026-04-20 06:39 16.05038 108.19945 42 ft 112 kts 171°
2026-04-20 06:39 16.04441 108.20032 42 ft 63 kts 172°
2026-04-20 06:39 16.04123 108.20074 42 ft 39 kts 173°
2026-04-20 06:39 16.03904 108.20111 42 ft 20 kts 169°
2026-04-20 06:40 16.03821 108.20158 42 ft 12 kts 111°
2026-04-20 06:40 16.03838 108.20243 42 ft 12 kts 43°
2026-04-20 06:40 16.03910 108.20248 42 ft 11 kts 351°
2026-04-20 06:40 16.03990 108.20236 42 ft 12 kts 352°
2026-04-20 06:41 16.04078 108.20225 42 ft 13 kts 352°
2026-04-20 06:41 16.04171 108.20211 42 ft 14 kts 352°
2026-04-20 06:41 16.04271 108.20196 42 ft 14 kts 352°
2026-04-20 06:41 16.04376 108.20180 42 ft 15 kts 352°
2026-04-20 06:42 16.04484 108.20164 42 ft 16 kts 352°
2026-04-20 06:42 16.04597 108.20149 42 ft 16 kts 352°
2026-04-20 06:42 16.04699 108.20142 42 ft 9 kts 24°
2026-04-20 06:42 16.04745 108.20194 42 ft 10 kts 25°
2026-04-20 06:43 16.04820 108.20191 42 ft 11 kts 351°
2026-04-20 06:43 16.04903 108.20179 42 ft 12 kts 352°
2026-04-20 06:43 16.04993 108.20165 42 ft 13 kts 352°
2026-04-20 06:43 16.05086 108.20152 42 ft 11 kts 352°
2026-04-20 06:44 16.05155 108.20152 42 ft 8 kts 40°
2026-04-20 06:44 16.05171 108.20193 42 ft 3 kts 79°
2026-04-20 06:44 16.05174 108.20209 42 ft 0 kts 81°